2021-022M (47943 NORAD) Tracking and Keplerian Element Data

This shows tracking and keplerian element data for the satellite.

Feedback or suggestion? Click here.




ElementValue
Catalog47943
Name2021-022M
Epoch Orbit428
Epoch Day110.95705775
Epoch Year2021
RAAN14.3043
Inclination97.561
Eccentricity0.0019372
Argument of Perigee132.7729
Mean Anonmoly355.8714
Mean Motion15.06785515
Decay Rate2.012E-05
L11 47943U 21022M 21110.95705775 .00002012 00000-0 13878-3 0 9999
L22 47943 97.5610 14.3043 0019372 132.7729 355.8714 15.06785515 4285

Live tracking and technical data element details for 2021-022M (NORAD 47943). 2021-022M can be tracked NOW for your location showing map with azimuth and elevation plus other details from your city location.

Track the satellite on the map from your city or location and see movement details for azimuth, elevation, latitude, longitude, range, height, and movement on the map or in text.







IsCatalogInMostPopularTable: catalog: 47943, numindb: 48
Update: records affected: 1



GetName: 47943 2021-022M

Hit Count: updated at: Mon, 21 Jun 2021 04:45:58 GMT